| time (UTC) | temp F | wind direction | speed knots | gust knots | rain 1hr in | rain 24hr in | rain mn in | humidity % | barometer mb |
| 20260505005740 | 78 | 172 | 3.5 | 15.6 | 0.00 | 0.00 | 0.00 | 67 | 1005.2 |
| 20260505002739 | 79 | 185 | 2.6 | 15.6 | 0.00 | 0.00 | 0.00 | 63 | 1005.1 |
| 20260504235738 | 80 | 172 | 3.5 | 15.6 | 0.00 | 0.00 | 0.00 | 62 | 1005.1 |
| 20260504225736 | 82 | 187 | 2.6 | 18.2 | 0.00 | 0.00 | 0.00 | 60 | 1005.8 |
| 20260504222736 | 83 | 187 | 7.8 | 23.5 | 0.00 | 0.00 | 0.00 | 58 | 1005.8 |
| 20260504215735 | 82 | 170 | 0.9 | 19.1 | 0.00 | 0.00 | 0.00 | 59 | 1006.0 |
| 20260504212734 | 82 | 136 | 3.5 | 15.6 | 0.00 | 0.00 | 0.00 | 60 | 1006.4 |
| 20260504205734 | 82 | 185 | 0.0 | 14.8 | 0.00 | 0.00 | 0.00 | 61 | 1007.0 |
| 20260504195732 | 81 | 203 | 3.5 | 13.9 | 0.00 | 0.00 | 0.00 | 60 | 1008.1 |
| 20260504192731 | 81 | 190 | 2.6 | 12.2 | 0.00 | 0.00 | 0.00 | 60 | 1008.5 |
| 20260504185730 | 79 | 172 | 8.7 | 14.8 | 0.00 | 0.00 | 0.00 | 64 | 1009.1 |
| 20260504182729 | 77 | 211 | 2.6 | 13.9 | 0.00 | 0.00 | 0.00 | 67 | 1009.4 |
| 20260504175729 | 76 | 182 | 3.5 | 13.9 | 0.00 | 0.00 | 0.00 | 68 | 1009.8 |
| 20260504045739 | 66 | 165 | 0.0 | 8.7 | 0.00 | 0.00 | 0.00 | 65 | 1014.2 |
| 20260504042738 | 67 | 158 | 0.0 | 7.0 | 0.00 | 0.00 | 0.00 | 60 | 1014.4 |
| 20260504035737 | 67 | 140 | 0.0 | 0.0 | 0.00 | 0.00 | 0.00 | 56 | 1014.5 |
| 20260504032736 | 66 | 138 | 0.0 | 0.0 | 0.00 | 0.00 | 0.00 | 56 | 1014.2 |
| 20260504022735 | 68 | 138 | 0.0 | 0.0 | 0.00 | 0.00 | 0.00 | 53 | 1013.9 |
| 20260504015734 | 70 | 138 | 0.0 | 0.0 | 0.00 | 0.00 | 0.00 | 51 | 1014.0 |
| 20260504012733 | 72 | 138 | 0.0 | 4.3 | 0.00 | 0.00 | 0.00 | 47 | 1013.4 |